Location: Gilevgi
(36.8751°N, 30.0581°E)
Time: 08:41:55
(UTC+00:00)

Okean 1-7 Rocket - Pass Details

Date: 20 March 2026
Orbit: 609 x 643 km, 82.5° (Epoch: 18 April)

Event Time Altitude Azimuth Distance (km) Brightness Sun altitude
Rises 01:58:26 0° 12° (NNE) 2,910 7.4 -25.4°
Reaches altitude 10° 02:01:26 10° 33° (NNE) 1,992 6.8 -24.8°
Maximum altitude 02:04:15 17° 73° (ENE) 1,593 6.6 -24.3°
Drops below altitude 10° 02:07:03 10° 113° (ESE) 1,971 6.7 -23.8°
Sets 02:09:58 0° 135° (SE) 2,865 7.3 -23.2°
